Location: Carrières
(48.9495°N, 2.0407°E)
Time: 21:41:33
(UTC+00:00)

Cosmos 1844 Rocket - Pass Details

Date: 28 January 2023
Orbit: 825 x 843 km, 71.0° (Epoch: 28 March)

Event Time Altitude Azimuth Distance (km) Brightness Sun altitude
Rises 19:24:13 0° 331° (NNW) 3,378 6.2 -26.5°
Reaches altitude 10° 19:26:40 10° 332° (NNW) 2,439 5.4 -26.9°
Enters shadow 19:31:56 79° 357° (N) 846 2.6 -27.8°
